Flag for Germany Weather past 2 weeks in Gotha, Thuringia, Germany

Now
51 °F

Fog.


Feels Like: 51 °F
Forecast: 47 / 69 °F
Wind: 1 mph from East

Location: Erfurt-Bindersleben


UV Index: 3 (Moderate)

Visibility: 0 mi


Pressure: 30.01 "Hg

Humidity: 99%

Dew point: 51 °F

Location of GothaLocation

Historic Weather in Gotha

°F

Gotha temperature yesterday

Maximum temperature yesterday: 63 °F (at 5:00 PM)
Minimum temperature yesterday: 43 °F (at 6:00 AM)
Average temperature yesterday: 55 °F

Past Weeks' High & Low Weather Summary

 TemperatureHumidityPressure
High66 °F (Apr 23, 5:00 PM)100% (Apr 19, 11:00 AM)30.47 "Hg (Apr 19, 11:00 AM)
Low31 °F (Apr 17, 3:00 AM)33% (Apr 17, 5:00 PM)29.65 "Hg (Apr 21, 3:00 PM)
Average49 °F78%30.04 "Hg
* Reported Apr 10 3:00 AM — Apr 25 3:00 AM, Gotha, Weather by CustomWeather, © 2014

Note: Actual official high and low records may vary slightly from our data, if they occured in-between our weather recording intervals... More about our weather records

Advertising

Historic Weather Conditions — Data for Previous 24 hours

 ConditionsComfort  
Time TempWeatherWind HumidityBarometerVisibility
3:00 AM
Apr 25
51 °FFog.1 mph99%30.01 "Hg0 mi
2:00 AM50 °FFog.2 mph98%30.03 "Hg0 mi
1:00 AM50 °FFog.3 mph97%30.05 "Hg0 mi
12:00 AM51 °FFog.2 mph97%30.06 "Hg2 mi
11:00 PM
Apr 24
52 °FFog.3 mph95%30.07 "Hg4 mi
10:00 PM55 °FPassing clouds.2 mph91%30.07 "Hg6 mi
9:00 PM57 °FPassing clouds.3 mph86%30.06 "Hg5 mi
8:00 PM59 °FOvercast.5 mph82%30.06 "Hg6 mi
7:00 PM61 °FPassing clouds.6 mph76%30.05 "Hg9 mi
6:00 PM62 °FPassing clouds.6 mph73%30.05 "Hg9 mi
5:00 PM63 °FPassing clouds.6 mph76%30.05 "Hg7 mi
4:00 PM62 °FPassing clouds.5 mph77%30.08 "Hg7 mi
3:00 PM62 °FPassing clouds.5 mph76%30.09 "Hg7 mi
2:00 PM62 °FPassing clouds.5 mph77%30.10 "Hg6 mi
1:00 PM60 °FFog.3 mph82%30.11 "Hg3 mi
12:00 PM58 °FFog.5 mph82%30.14 "Hg4 mi
11:00 AM57 °FFog.3 mph82%30.15 "Hg4 mi
10:00 AM55 °FFog.2 mph84%30.16 "Hg4 mi
9:00 AM53 °FFog.2 mph88%30.16 "Hg4 mi
8:00 AM48 °FFog.2 mph96%30.16 "Hg4 mi
7:00 AM43 °FFog.2 mph96%30.16 "Hg4 mi
6:00 AM43 °FFog.2 mph94%30.15 "Hg5 mi
5:00 AM43 °FPassing clouds.2 mph94%30.16 "Hg7 mi
4:00 AM47 °FPassing clouds.2 mph93%30.15 "Hg8 mi
Weather by CustomWeather, © 2014

See weather overview